This is the latest recevied weather packets stored in our database for station/object N7WSS. If no packets are shown the sender has not sent any weather packets the latest 10 day(s).
| Time | Temp. | Humidity | Pressure | Rain* | Wind** | Luminosity | Snow |
|---|---|---|---|---|---|---|---|
| 1788384304 | 31.11° C | 48% | 1014.1 hPa | 0 mm | - | - | - |
| 1788384000 | 31.11° C | 47% | 1014.4 hPa | 0 mm | - | - | - |
| 1788383695 | 31.11° C | 47% | 1014.4 hPa | 0 mm | - | - | - |
| 1788383390 | 31.11° C | 47% | 1014.7 hPa | 0 mm | - | - | - |
| 1788383085 | 31.67° C | 47% | 1014.5 hPa | 0 mm | - | - | - |
| 1788382783 | 31.67° C | 46% | 1014.5 hPa | 0 mm | - | - | - |
| 1788382478 | 31.67° C | 45% | 1014.4 hPa | 0 mm | - | - | - |
| 1788382174 | 31.67° C | 43% | 1014.3 hPa | 0 mm | - | - | - |
| 1788381873 | 31.67° C | 42% | 1014.4 hPa | 0 mm | - | - | - |
| 1788381569 | 32.22° C | 42% | 1014.4 hPa | 0 mm | - | - | - |
| 1788381265 | 32.22° C | 42% | 1014.5 hPa | 0 mm | - | - | - |
| 1788380963 | 32.78° C | 39% | 1014.5 hPa | 0 mm | - | - | - |
| 1788380660 | 32.78° C | 40% | 1014.3 hPa | 0 mm | - | - | - |
| 1788380356 | 33.33° C | 40% | 1014.4 hPa | 0 mm | - | - | - |
| 1788380056 | 34.44° C | 38% | 1014.4 hPa | 0 mm | - | - | - |
| 1788379751 | 35° C | 38% | 1014.7 hPa | 0 mm | - | - | - |
| 1788379446 | 34.44° C | 39% | 1014.5 hPa | 0 mm | - | - | - |
| 1788379142 | 35° C | 39% | 1014.7 hPa | 0 mm | - | - | - |
| 1788378842 | 34.44° C | 39% | 1015 hPa | 0 mm | - | - | - |
| 1788378536 | 34.44° C | 41% | 1015.1 hPa | 0 mm | - | - | - |
| 1788378236 | 34.44° C | 41% | 1014.9 hPa | 0 mm | - | - | - |
| 1788377931 | 33.89° C | 43% | 1015.1 hPa | 0 mm | - | - | - |
| 1788377627 | 33.33° C | 43% | 1015.3 hPa | 0 mm | - | - | - |
| 1788377326 | 33.89° C | 42% | 1015.3 hPa | 0 mm | - | - | - |
| 1788377024 | 33.33° C | 42% | 1015.4 hPa | 0 mm | - | - | - |
* Rain latest hour (hover to see other rain measurements)
** Current wind speed in m/s (hover to see current wind gust speed)